Retour au catalogue

DELTA 1 DEB

ActifSSO
NORAD 12242·DEBRIS·🇺🇸 United States

Lancé Mar 5, 1978 depuis Vandenberg Space Force Base

Loading…

Prochains Passages (prochaines 24 heures)

TLE

FraisSource: Space-Track

Époque: Sep 14, 2026, 07:00 UTC

1 12242U 78026CK  26257.29224275  .00000223  00000-0  17781-3 0  9993
2 12242  98.9543 199.9353 0068443 348.0268  11.9267 13.99962952322004

Suivez DELTA 1 DEB en temps réel avec AllMySat

Download on the App Store